This demonstration page uses our WeatherBlox Daily Observations layout. Learn more.

Left ArrowRight Arrow

Hourly Observations for May 5, 2019

Temp ( °F °C ) Dew Point ( °F °C ) Humidity (%) Winds ( mph kmh ) Pressure ( in mb ) Visibility ( mi km ) Precip ( " mm )
12:52 am 00:52 Clear 48 8.9 45 7.2 89 89 SE 3 6 29.91 1013 10 16 0.00 0.00
1:52 am 01:52 Clear 48 8.9 45 7.2 89 89 Calm 29.92 1013 10 16 0.00 0.00
2:52 am 02:52 Clear 47 8.3 45 7.2 93 93 SSE 3 6 29.92 1013 8 13 0.00 0.00
3:33 am 03:33 Mostly Clear with Mist and Fog 47 8.3 44 6.7 90 90 SSE 3 6 29.94 1014 3 4 0.00 0.00
3:49 am 03:49 Clear with Mist and Fog 46 8 45 7 93 93 Calm 29.94 1014 4 6 0.00 0.00
3:52 am 03:52 Clear with Mist and Fog 47 8.3 45 7.2 93 93 Calm 29.91 1013 5 8 0.00 0.00
4:21 am 04:21 Mostly Clear with Mist and Fog 45 7.2 43 6.1 93 93 SSW 3 6 29.96 1014 3 4 0.00 0.00
4:36 am 04:36 Clear 47 8.3 44 6.7 90 90 WSW 5 7 29.95 1014 7 11 0.00 0.00
4:52 am 04:52 Clear with Mist and Fog 47 8.3 45 7.2 93 93 WSW 3 6 29.92 1013 4 6 0.00 0.00
5:27 am 05:27 Clear with Mist and Fog 45 7.2 43 6.1 93 93 Calm 29.95 1014 2 2 0.00 0.00
5:29 am 05:29 Mostly Cloudy with Mist and Fog 44 6.7 43 6.1 96 96 S 3 6 29.95 1014 1 2 0.00 0.00
5:38 am 05:38 Partly Cloudy with Mist and Fog 44 6.7 42 5.6 93 93 SE 3 6 29.95 1014 2 3 0.00 0.00
5:52 am 05:52 Mostly Clear 45 7.2 42 5.6 90 90 SE 5 7 29.91 1013 7 11 0.00 0.00
6:52 am 06:52 Sunny 46 7.8 44 6.7 93 93 S 3 6 29.93 1014 10 16 0.00 0.00
7:52 am 07:52 Sunny 54 12.2 51 10.6 90 90 SE 5 7 29.93 1014 10 16 0.00 0.00
8:52 am 08:52 Sunny 60 15.6 52 11.1 75 75 SSE 5 7 29.93 1014 10 16 0.00 0.00
9:52 am 09:52 Sunny 63 17.2 50 10 63 63 S 7 11 29.95 1014 10 16 0.00 0.00
10:52 am 10:52 Sunny 64 17.8 51 10.6 63 63 S 5 7 29.96 1014 10 16 0.00 0.00
11:52 am 11:52 Sunny 67 19.4 52 11.1 59 59 WSW 6 9 29.95 1014 10 16 0.00 0.00
12:52 pm 12:52 Sunny 69 20.6 52 11.1 55 55 VRB 5 7 29.93 1014 10 16 0.00 0.00
1:52 pm 13:52 Sunny 72 22.2 50 10 46 46 SE 8 13 29.91 1013 10 16 0.00 0.00
2:52 pm 14:52 Sunny 73 22.8 52 11.1 48 48 SW 7 11 29.90 1012 10 16 0.00 0.00
3:52 pm 15:52 Sunny 73 22.8 53 11.7 50 50 SSW 9 15 29.88 1012 10 16 0.00 0.00
4:52 pm 16:52 Sunny 74 23.3 54 12.2 50 50 SSW 6 9 29.86 1011 10 16 0.00 0.00
5:52 pm 17:52 Sunny 74 23.3 53 11.7 48 48 SSW 7 11 29.86 1011 10 16 0.00 0.00
6:52 pm 18:52 Sunny 72 22.2 52 11.1 50 50 SSE 8 13 29.85 1011 10 16 0.00 0.00
7:52 pm 19:52 Sunny 66 18.9 49 9.4 54 54 SE 8 13 29.83 1010 10 16 0.00 0.00
8:52 pm 20:52 Clear 65 18.3 47 8.3 52 52 SSE 8 13 29.84 1011 10 16 0.00 0.00
9:52 pm 21:52 Clear 63 17.2 48 8.9 58 58 SSE 8 13 29.89 1012 10 16 0.00 0.00
10:52 pm 22:52 Clear 63 17.2 49 9.4 60 60 SSE 10 17 29.88 1012 10 16 0.00 0.00
11:52 pm 23:52 Clear 62 16.7 48 8.9 60 60 SSE 10 17 29.90 1013 10 16 0.00 0.00

Powered by AerisWeather